Location: *
(43.0833°N, 13.0500°E)
Time: 20:40:11
(UTC+00:00)

SMAP - Pass Details

Date: 15 November 2019
Orbit: 682 x 683 km, 98.1° (Epoch: 11 December)

Event Time Altitude Azimuth Distance (km) Brightness Sun altitude
Rises 16:33:36 0° 167° (SSE) 3,031 6.5 -9.2°
Reaches altitude 10° 16:35:49 10° 168° (SSE) 2,120 5.7 -9.6°
Maximum altitude 16:40:28 84° 256° (WSW) 693 3.2 -10.4°
Drops below altitude 10° 16:45:09 10° 346° (NNW) 2,136 5.6 -11.3°
Sets 16:47:24 0° 347° (NNW) 3,056 6.4 -11.7°
